N4MRV-1 Weather Reports


time (UTC)temp
C
wind
direction
speed
KPH
gust
KPH
rain 1hr
cm
rain 24hr
cm
rain mn
cm
humidity
%
barometer
mb
20260902071516 23 0.0 0.0 0.00 0.00 0.00 90 1017.1
20260902070016 23 0.0 0.0 0.00 0.00 0.00 90 1017.0
20260902064536 23 0.0 0.0 0.00 0.00 0.00 89 1017.0
20260902063016 23 0.0 0.0 0.00 0.00 0.00 89 1016.8
20260902061516 23 0.0 1.6 0.00 0.00 0.00 89 1016.9
20260902060036 24 0.0 1.6 0.00 0.00 0.00 89 1016.8
20260902054515 24 0.0 0.0 0.00 0.00 0.00 89 1016.6
20260902053016 24 0.0 0.0 0.00 0.00 0.00 89 1016.7
20260902051536 24 0.0 1.6 0.00 0.00 0.00 89 1016.7
20260902050016 25 0.0 0.0 0.00 0.00 0.00 89 1017.0
20260902044515 25 0.0 1.6 0.00 0.00 0.00 89 1017.0
20260902043016 25 0.0 1.6 0.00 0.00 0.00 88 1016.6
20260902041515 25 0.0 0.0 0.00 0.00 0.00 87 1016.5
20260902040015 25 0.0 0.0 0.00 0.00 0.00 87 1016.4
20260902034516 25 0.0 0.0 0.00 0.00 0.00 87 1016.3
20260902033016 25 0.0 0.0 0.00 0.00 0.00 87 1016.0
20260902031516 25 0.0 0.0 0.00 0.00 0.00 85 1016.0
20260902030036 26 0.0 0.0 0.00 0.00 0.00 84 1016.0
20260902024536 26 0.0 0.0 0.00 0.00 0.00 84 1016.0
20260902023016 26 0.0 0.0 0.00 0.00 0.00 84 1016.1
20260902021516 26 0.0 0.0 0.00 0.00 0.00 84 1016.1
20260902020016 26 0.0 0.0 0.00 0.00 0.00 83 1016.0
20260902014516 27 0.0 0.0 0.00 0.00 0.00 83 1015.8
20260902013036 27 0.0 0.0 0.00 0.00 0.00 83 1015.6
20260902011516 27 0.0 0.0 0.00 0.00 0.00 82 1015.4
20260902010016 27 0.0 0.0 0.00 0.00 0.00 82 1015.2
20260902004556 28 0.0 0.0 0.00 0.00 0.00 80 1015.0
20260902003016 28 0.0 0.0 0.00 0.00 0.00 80 1014.9
20260902001516 29 0.0 0.0 0.00 0.00 0.00 78 1014.9
20260902000016 29 0.0 0.0 0.00 0.00 0.00 77 1014.9
20260901234536 30 0.0 0.0 0.00 0.00 0.00 76 1014.9
20260901233056 30 0.0 0.0 0.00 0.00 0.00 73 1015.0
20260901231536 31 0.0 0.0 0.00 0.00 0.00 71 1015.0
20260901230016 31 0.0 0.0 0.00 0.00 0.00 70 1015.2
20260901224515 31 0.0 0.0 0.00 0.00 0.00 67 1015.2
20260901223016 32 0.0 0.0 0.00 0.00 0.00 64 1015.3
20260901221516 32 0.0 0.0 0.00 0.00 0.00 63 1015.4
20260901220016 32 0.0 0.0 0.00 0.00 0.00 62 1015.4
20260901214515 32 0.0 0.0 0.00 0.00 0.00 62 1015.5
20260901213015 32 0.0 1.6 0.00 0.00 0.00 59 1015.5
20260901211515 33 0.0 3.2 0.00 0.00 0.00 58 1015.5
20260901210015 33 0.0 3.2 0.00 0.00 0.00 58 1015.7
20260901204515 33 0.0 3.2 0.00 0.00 0.00 55 1015.8
20260901203015 33 315 1.6 4.8 0.00 0.00 0.00 54 1015.7
20260901201535 33 293 1.6 6.4 0.00 0.00 0.00 55 1016.0
20260901200035 33 338 1.6 9.7 0.00 0.00 0.00 55 1016.2
20260901194515 33 315 1.6 6.4 0.00 0.00 0.00 56 1016.3
20260901193015 33 293 1.6 6.4 0.00 0.00 0.00 56 1016.3
20260901191535 33 0.0 4.8 0.00 0.00 0.00 55 1016.4
20260901190011 33 315 1.6 4.8 0.00 0.00 0.00 56 1016.6
20260901184515 33 315 1.6 4.8 0.00 0.00 0.00 57 1016.7
20260901183015 33 158 1.6 4.8 0.00 0.00 0.00 59 1016.8
20260901181517 32 0 1.6 4.8 0.00 0.00 0.00 57 1017.0
20260901180037 32 315 1.6 6.4 0.00 0.00 0.00 55 1016.7
20260901174517 32 270 1.6 8.0 0.00 0.00 0.00 56 1016.7
20260901173017 32 315 1.6 4.8 0.00 0.00 0.00 55 1016.7
20260901171517 32 315 1.6 6.4 0.00 0.00 0.00 57 1016.8
20260901170017 32 248 1.6 6.4 0.00 0.00 0.00 60 1016.9
20260901164517 32 315 1.6 6.4 0.00 0.00 0.00 60 1017.1
20260901163017 32 315 1.6 4.8 0.00 0.00 0.00 60 1017.4
20260901161517 32 315 1.6 6.4 0.00 0.00 0.00 63 1017.6
20260901160017 32 338 1.6 11.3 0.00 0.00 0.00 64 1017.8
20260901154517 32 315 1.6 8.0 0.00 0.00 0.00 65 1017.8
20260901153017 31 315 1.6 6.4 0.00 0.00 0.00 67 1018.0
20260901151517 30 0.0 3.2 0.00 0.00 0.00 73 1018.0
20260901150017 29 338 1.6 4.8 0.00 0.00 0.00 76 1018.1
20260901144517 28 338 1.6 8.0 0.00 0.00 0.00 80 1018.2
20260901143017 27 315 1.6 4.8 0.00 0.00 0.00 83 1018.1
20260901141517 27 0.0 4.8 0.00 0.00 0.00 85 1018.2
20260901140017 26 338 1.6 6.4 0.00 0.00 0.00 86 1018.1
20260901134516 25 315 1.6 8.0 0.00 0.00 0.00 91 1018.1
20260901133016 25 315 1.6 6.4 0.00 0.00 0.00 95 1018.0
20260901131516 24 0.0 3.2 0.00 0.00 0.00 96 1018.1
20260901130016 24 0.0 4.8 0.00 0.00 0.00 95 1018.3
20260901124516 23 0.0 1.6 0.00 0.00 0.00 95 1018.2
20260901123016 23 0.0 1.6 0.00 0.00 0.00 95 1018.3
20260901121516 22 0.0 1.6 0.00 0.00 0.00 95 1018.3
20260901120016 22 0.0 1.6 0.00 0.00 0.00 94 1018.3
20260901114516 22 0.0 0.0 0.00 0.00 0.00 94 1018.2
20260901113016 22 0.0 0.0 0.00 0.00 0.00 94 1018.1
20260901111536 22 0.0 0.0 0.00 0.00 0.00 94 1017.9
20260901110016 22 0.0 0.0 0.00 0.00 0.00 94 1017.9
20260901104516 22 0.0 0.0 0.00 0.00 0.00 94 1017.6
20260901103016 22 0.0 0.0 0.00 0.00 0.00 93 1017.5
20260901101516 22 0.0 1.6 0.00 0.00 0.00 93 1017.5
20260901100016 22 0.0 0.0 0.00 0.00 0.00 93 1017.7
20260901094536 22 0.0 0.0 0.00 0.00 0.00 93 1017.6
20260901093016 22 0.0 0.0 0.00 0.00 0.00 93 1017.5
20260901091536 22 0.0 0.0 0.00 0.00 0.00 93 1017.5
20260901090016 22 0.0 0.0 0.00 0.00 0.00 92 1017.6
20260901084516 22 0.0 0.0 0.00 0.00 0.00 92 1017.6
20260901083016 22 0.0 0.0 0.00 0.00 0.00 92 1017.7
20260901081536 22 0.0 0.0 0.00 0.00 0.00 92 1017.7
20260901080016 22 0.0 1.6 0.00 0.00 0.00 92 1017.7
20260901074536 22 0.0 0.0 0.00 0.00 0.00 91 1017.6
20260901073016 22 0.0 0.0 0.00 0.00 0.00 91 1017.7